Tracking 25934 objects as of 11-Aug-2022
HD Live streaming from Space Station
objects crossing your sky now

CZ-3B R/B

Track CZ-3B R/B now!


NORAD ID: 25405
Int'l Code: 1998-044B
Perigee: 631.3 km
Apogee: 35,738.0 km
Inclination: 18.3 °
Period: 638.2 minutes
Semi major axis: 24555 km
RCS: 22.0892 m2 (large)
Launch date: July 18, 1998
Source: People's Republic of China (PRC)
Launch site: Xichang Space Center, China (XSC)

Note: This is a ROCKET BODY
aabbcc
Your satellite tracking list
Your tracking list is empty




NASA's NSSDC Master Catalog

Two Line Element Set (TLE):
1 25405U 98044B   22222.60338715 -.00000122  00000-0  85628-4 0  9993
2 25405  18.3107 144.4120 7148405 233.3440  15.6289  2.25619408198312
Source of the keplerian elements: AFSPC